User: anonymous   Login
Location: Newark
(51.3318°N, 0.0053°E)
Time: 02:08:03
(UTC+00:00)
Language:

ONEWEB-0421 - Orbit

View from above orbital plane
View from above orbital plane
View from above satellite
View from above satellite

Ground track
Ground track

The orbit data is extracted from the following two-line orbital elements,

1 50496U 21132AD  23339.53423885  .00000097  00000-0  21440-3 0  9991
2 50496  87.9156 159.3966 0001303  69.4395 290.6877 13.18688795 99759
Epoch (UTC): 05 December 2023 12:49:18
Eccentricity: 0.0001303
inclination: 87.9156°
perigee height: 1189 km
apogee height: 1191 km
right ascension of ascending node: 159.3966°
argument of perigee: 69.4395°
revolutions per day: 13.18688795
mean anomaly at epoch: 290.6877°
orbit number at epoch: 9975

The dashed part of the orbit path shows where the satellite is in the earth's shadow,  

DLR